| time (UTC) | temp C | wind direction | speed KPH | gust KPH | rain 1hr cm | rain 24hr cm | rain mn cm | humidity % | barometer mb |
| 20260508133032 | 13 | 205 | 0.0 | 6.4 | 0.00 | 0.00 | 0.00 | 45 | 1017.2 |
| 20260508132537 | 12 | 141 | 0.0 | 6.4 | 0.00 | 0.00 | 0.00 | 45 | 1017.2 |
| 20260508132033 | 12 | 124 | 1.6 | 6.4 | 0.00 | 0.00 | 0.00 | 45 | 1017.2 |
| 20260508131530 | 12 | 165 | 0.0 | 3.2 | 0.00 | 0.00 | 0.00 | 46 | 1017.0 |
| 20260508131030 | 12 | 141 | 1.6 | 3.2 | 0.00 | 0.00 | 0.00 | 43 | 1017.1 |
| 20260508130528 | 12 | 133 | 0.0 | 3.2 | 0.00 | 0.00 | 0.00 | 42 | 1017.0 |
| 20260508130029 | 12 | 176 | 0.0 | 3.2 | 0.00 | 0.00 | 0.00 | 44 | 1017.0 |
| 20260508125529 | 12 | 127 | 0.0 | 3.2 | 0.00 | 0.00 | 0.00 | 43 | 1016.9 |
| 20260508125027 | 12 | 149 | 0.0 | 1.6 | 0.00 | 0.00 | 0.00 | 45 | 1017.1 |
| 20260508124525 | 12 | 149 | 0.0 | 0.0 | 0.00 | 0.00 | 0.00 | 48 | 1016.8 |
| 20260508124024 | 12 | 149 | 0.0 | 0.0 | 0.00 | 0.00 | 0.00 | 51 | 1016.8 |
| 20260508123524 | 11 | 149 | 0.0 | 0.0 | 0.00 | 0.00 | 0.00 | 56 | 1016.8 |
| 20260508123022 | 10 | 149 | 0.0 | 0.0 | 0.00 | 0.00 | 0.00 | 58 | 1016.8 |
| 20260508122520 | 10 | 149 | 0.0 | 1.6 | 0.00 | 0.00 | 0.00 | 61 | 1016.8 |
| 20260508122018 | 8 | 149 | 0.0 | 1.6 | 0.00 | 0.00 | 0.00 | 63 | 1016.8 |
| 20260508121526 | 8 | 149 | 0.0 | 1.6 | 0.00 | 0.00 | 0.00 | 65 | 1016.7 |
| 20260508121018 | 7 | 161 | 0.0 | 1.6 | 0.00 | 0.00 | 0.00 | 68 | 1016.6 |
| 20260508120517 | 6 | 243 | 0.0 | 1.6 | 0.00 | 0.00 | 0.00 | 69 | 1016.5 |
| 20260508120017 | 6 | 144 | 0.0 | 1.6 | 0.00 | 0.00 | 0.00 | 73 | 1016.5 |
| 20260508115518 | 6 | 144 | 0.0 | 1.6 | 0.00 | 0.00 | 0.00 | 71 | 1016.4 |
| 20260508115015 | 5 | 124 | 0.0 | 1.6 | 0.00 | 0.00 | 0.00 | 75 | 1016.2 |
| 20260508114515 | 4 | 124 | 0.0 | 1.6 | 0.00 | 0.00 | 0.00 | 77 | 1016.1 |
| 20260508114018 | 3 | 110 | 0.0 | 1.6 | 0.00 | 0.00 | 0.00 | 79 | 1016.0 |
| 20260508113514 | 3 | 129 | 0.0 | 1.6 | 0.00 | 0.00 | 0.00 | 79 | 1016.0 |
| 20260508113016 | 3 | 131 | 0.0 | 3.2 | 0.00 | 0.00 | 0.00 | 79 | 1016.0 |
| 20260508112515 | 3 | 133 | 0.0 | 3.2 | 0.00 | 0.00 | 0.00 | 80 | 1015.8 |
| 20260508112011 | 3 | 113 | 0.0 | 1.6 | 0.00 | 0.00 | 0.00 | 81 | 1015.7 |
| 20260508111510 | 3 | 113 | 0.0 | 1.6 | 0.00 | 0.00 | 0.00 | 80 | 1015.7 |
| 20260508111009 | 3 | 142 | 0.0 | 1.6 | 0.00 | 0.00 | 0.00 | 78 | 1015.6 |
| 20260508110508 | 3 | 142 | 0.0 | 1.6 | 0.00 | 0.00 | 0.00 | 77 | 1015.5 |
| 20260508110014 | 3 | 142 | 0.0 | 3.2 | 0.00 | 0.00 | 0.00 | 77 | 1015.6 |
| 20260508105506 | 4 | 141 | 0.0 | 3.2 | 0.00 | 0.08 | 0.00 | 75 | 1015.5 |
| 20260508105005 | 5 | 126 | 0.0 | 1.6 | 0.00 | 0.08 | 0.00 | 70 | 1015.3 |
| 20260508104504 | 6 | 360 | 0.0 | 6.4 | 0.00 | 0.08 | 0.00 | 66 | 1015.1 |
| 20260508104003 | 6 | 360 | 3.2 | 8.0 | 0.00 | 0.08 | 0.00 | 64 | 1014.9 |
| 20260508103502 | 6 | 330 | 3.2 | 6.4 | 0.00 | 0.08 | 0.00 | 64 | 1014.7 |
| 20260508103001 | 6 | 344 | 1.6 | 6.4 | 0.00 | 0.08 | 0.00 | 65 | 1014.6 |
| 20260508102502 | 6 | 2 | 1.6 | 4.8 | 0.00 | 0.08 | 0.00 | 67 | 1014.6 |
| 20260508102001 | 5 | 96 | 0.0 | 1.6 | 0.00 | 0.08 | 0.00 | 68 | 1014.6 |
| 20260508101601 | 5 | 96 | 0.0 | 3.2 | 0.00 | 0.08 | 0.00 | 70 | 1014.5 |
| 20260508101100 | 5 | 96 | 1.6 | 4.8 | 0.00 | 0.08 | 0.00 | 70 | 1014.4 |
| 20260508100603 | 5 | 101 | 1.6 | 4.8 | 0.00 | 0.08 | 0.00 | 70 | 1014.4 |
| 20260508100059 | 5 | 120 | 1.6 | 3.2 | 0.00 | 0.08 | 0.00 | 69 | 1014.2 |
| 20260508095556 | 6 | 140 | 0.0 | 6.4 | 0.00 | 0.08 | 0.00 | 67 | 1014.2 |
| 20260508095055 | 6 | 26 | 0.0 | 9.7 | 0.00 | 0.08 | 0.00 | 66 | 1014.1 |
| 20260508094611 | 6 | 14 | 1.6 | 12.9 | 0.00 | 0.08 | 0.00 | 66 | 1014.0 |
| 20260508094053 | 6 | 321 | 6.4 | 12.9 | 0.00 | 0.08 | 0.00 | 66 | 1014.0 |
| 20260508093552 | 6 | 312 | 3.2 | 12.9 | 0.00 | 0.08 | 0.00 | 66 | 1014.0 |
| 20260508093052 | 6 | 346 | 6.4 | 20.9 | 0.00 | 0.08 | 0.00 | 65 | 1013.9 |
| 20260508092552 | 6 | 23 | 6.4 | 20.9 | 0.00 | 0.08 | 0.00 | 65 | 1013.8 |
| 20260508092052 | 6 | 334 | 8.0 | 17.7 | 0.00 | 0.08 | 0.00 | 65 | 1013.8 |
| 20260508091550 | 6 | 15 | 8.0 | 17.7 | 0.00 | 0.08 | 0.00 | 66 | 1013.8 |
| 20260508091051 | 6 | 8 | 8.0 | 17.7 | 0.00 | 0.08 | 0.00 | 66 | 1013.8 |
| 20260508090549 | 6 | 340 | 9.7 | 17.7 | 0.00 | 0.08 | 0.00 | 65 | 1013.7 |
| 20260508090052 | 6 | 335 | 8.0 | 17.7 | 0.00 | 0.08 | 0.00 | 66 | 1013.7 |
| 20260508085548 | 6 | 8 | 8.0 | 14.5 | 0.00 | 0.08 | 0.00 | 66 | 1013.9 |
| 20260508085047 | 6 | 330 | 6.4 | 14.5 | 0.00 | 0.08 | 0.00 | 66 | 1013.9 |
| 20260508084649 | 6 | 24 | 4.8 | 11.3 | 0.00 | 0.08 | 0.00 | 67 | 1013.8 |
| 20260508084047 | 6 | 323 | 3.2 | 9.7 | 0.00 | 0.08 | 0.00 | 67 | 1013.9 |
| 20260508083547 | 6 | 13 | 3.2 | 6.4 | 0.00 | 0.08 | 0.00 | 68 | 1013.8 |
| 20260508083044 | 6 | 345 | 1.6 | 3.2 | 0.00 | 0.08 | 0.00 | 68 | 1013.8 |
| 20260508082544 | 6 | 335 | 0.0 | 8.0 | 0.00 | 0.08 | 0.00 | 68 | 1013.8 |
| 20260508082045 | 6 | 352 | 0.0 | 8.0 | 0.00 | 0.08 | 0.00 | 68 | 1013.7 |
| 20260508081600 | 6 | 335 | 0.0 | 8.0 | 0.00 | 0.08 | 0.00 | 68 | 1013.7 |
| 20260508081043 | 6 | 348 | 1.6 | 9.7 | 0.00 | 0.08 | 0.00 | 68 | 1013.6 |
| 20260508080542 | 6 | 4 | 3.2 | 9.7 | 0.00 | 0.08 | 0.00 | 68 | 1013.6 |
| 20260508080042 | 6 | 30 | 1.6 | 8.0 | 0.00 | 0.08 | 0.00 | 70 | 1013.5 |
| 20260508075545 | 6 | 14 | 1.6 | 9.7 | 0.00 | 0.13 | 0.00 | 70 | 1013.5 |
| 20260508075046 | 6 | 37 | 1.6 | 6.4 | 0.00 | 0.13 | 0.00 | 70 | 1013.6 |
| 20260508074540 | 6 | 321 | 0.0 | 11.3 | 0.00 | 0.13 | 0.00 | 71 | 1013.5 |
| 20260508074039 | 6 | 101 | 1.6 | 11.3 | 0.00 | 0.13 | 0.00 | 70 | 1013.4 |
| 20260508073540 | 7 | 325 | 1.6 | 14.5 | 0.00 | 0.13 | 0.00 | 71 | 1013.5 |
| 20260508073041 | 7 | 343 | 3.2 | 16.1 | 0.00 | 0.13 | 0.00 | 71 | 1013.4 |
| 20260508072537 | 7 | 332 | 4.8 | 17.7 | 0.00 | 0.13 | 0.00 | 71 | 1013.3 |
| 20260508072037 | 7 | 283 | 6.4 | 20.9 | 0.00 | 0.13 | 0.00 | 71 | 1013.2 |
| 20260508071544 | 7 | 338 | 3.2 | 20.9 | 0.00 | 0.13 | 0.00 | 71 | 1013.3 |
| 20260508071035 | 7 | 52 | 4.8 | 22.5 | 0.00 | 0.13 | 0.00 | 71 | 1013.3 |
| 20260508070535 | 7 | 15 | 11.3 | 24.1 | 0.00 | 0.13 | 0.00 | 71 | 1013.2 |
| 20260508070035 | 7 | 19 | 11.3 | 24.1 | 0.00 | 0.13 | 0.00 | 71 | 1013.2 |
| 20260508065534 | 7 | 340 | 4.8 | 17.7 | 0.00 | 0.13 | 0.00 | 72 | 1013.3 |
| 20260508065133 | 7 | 278 | 8.0 | 17.7 | 0.00 | 0.13 | 0.00 | 73 | 1013.1 |
| 20260508064532 | 7 | 323 | 3.2 | 11.3 | 0.00 | 0.13 | 0.00 | 73 | 1013.1 |
| 20260508064031 | 7 | 349 | 1.6 | 14.5 | 0.00 | 0.13 | 0.00 | 73 | 1013.1 |
| 20260508063530 | 7 | 347 | 6.4 | 24.1 | 0.00 | 0.13 | 0.00 | 73 | 1013.0 |
| 20260508063044 | 7 | 33 | 3.2 | 24.1 | 0.00 | 0.13 | 0.00 | 73 | 1012.9 |
| 20260508062530 | 7 | 322 | 4.8 | 19.3 | 0.00 | 0.13 | 0.00 | 74 | 1012.8 |
| 20260508062029 | 7 | 315 | 6.4 | 24.1 | 0.00 | 0.13 | 0.00 | 75 | 1012.9 |
| 20260508061529 | 7 | 324 | 6.4 | 25.7 | 0.00 | 0.13 | 0.00 | 75 | 1012.8 |
| 20260508061028 | 7 | 296 | 6.4 | 20.9 | 0.00 | 0.13 | 0.00 | 76 | 1012.9 |
| 20260508060527 | 7 | 352 | 11.3 | 24.1 | 0.00 | 0.13 | 0.00 | 76 | 1012.9 |
| 20260508060034 | 7 | 348 | 11.3 | 24.1 | 0.00 | 0.13 | 0.00 | 77 | 1012.9 |
| 20260508055529 | 7 | 290 | 11.3 | 25.7 | 0.00 | 0.13 | 0.00 | 77 | 1012.9 |
| 20260508055026 | 7 | 338 | 12.9 | 27.4 | 0.00 | 0.13 | 0.00 | 78 | 1012.9 |
| 20260508054525 | 7 | 357 | 14.5 | 27.4 | 0.00 | 0.13 | 0.00 | 78 | 1012.9 |
| 20260508054023 | 7 | 339 | 11.3 | 29.0 | 0.00 | 0.13 | 0.00 | 78 | 1012.8 |
| 20260508053523 | 7 | 318 | 12.9 | 29.0 | 0.00 | 0.13 | 0.00 | 78 | 1012.7 |
| 20260508053024 | 7 | 319 | 12.9 | 25.7 | 0.00 | 0.13 | 0.00 | 78 | 1012.8 |
| 20260508052524 | 7 | 13 | 9.7 | 22.5 | 0.00 | 0.13 | 0.00 | 78 | 1012.7 |
| 20260508052021 | 8 | 326 | 8.0 | 24.1 | 0.00 | 0.13 | 0.00 | 78 | 1012.6 |
| 20260508051522 | 8 | 89 | 6.4 | 19.3 | 0.00 | 0.13 | 0.00 | 78 | 1012.5 |
| 20260508051020 | 8 | 77 | 6.4 | 19.3 | 0.00 | 0.13 | 0.00 | 78 | 1012.5 |
| 20260508050518 | 8 | 298 | 3.2 | 12.9 | 0.00 | 0.13 | 0.00 | 78 | 1012.4 |
| 20260508050019 | 8 | 58 | 3.2 | 17.7 | 0.00 | 0.13 | 0.00 | 78 | 1012.4 |
| 20260508045520 | 8 | 18 | 4.8 | 22.5 | 0.00 | 0.13 | 0.00 | 78 | 1012.2 |
| 20260508045018 | 8 | 12 | 8.0 | 25.7 | 0.00 | 0.13 | 0.00 | 79 | 1012.1 |
| 20260508044521 | 8 | 1 | 8.0 | 25.7 | 0.00 | 0.13 | 0.00 | 78 | 1012.2 |
| 20260508044016 | 8 | 335 | 11.3 | 25.7 | 0.00 | 0.13 | 0.00 | 77 | 1012.3 |
| 20260508043516 | 8 | 11 | 14.5 | 27.4 | 0.00 | 0.13 | 0.00 | 77 | 1012.4 |
| 20260508043019 | 8 | 329 | 12.9 | 27.4 | 0.00 | 0.13 | 0.00 | 77 | 1012.4 |
| 20260508042518 | 8 | 336 | 12.9 | 30.6 | 0.00 | 0.13 | 0.00 | 77 | 1012.4 |
| 20260508042013 | 8 | 335 | 19.3 | 30.6 | 0.00 | 0.13 | 0.00 | 76 | 1012.4 |
| 20260508041512 | 8 | 348 | 14.5 | 30.6 | 0.00 | 0.13 | 0.00 | 78 | 1012.4 |
| 20260508041012 | 8 | 292 | 11.3 | 32.2 | 0.00 | 0.13 | 0.00 | 78 | 1012.3 |
| 20260508040513 | 8 | 342 | 14.5 | 32.2 | 0.00 | 0.13 | 0.00 | 78 | 1012.2 |
| 20260508040009 | 8 | 16 | 12.9 | 24.1 | 0.00 | 0.13 | 0.00 | 79 | 1012.2 |
| 20260508035510 | 8 | 347 | 9.7 | 25.7 | 0.00 | 0.13 | 0.13 | 80 | 1012.4 |
| 20260508035009 | 8 | 341 | 11.3 | 22.5 | 0.00 | 0.13 | 0.13 | 79 | 1012.5 |
| 20260508034509 | 8 | 304 | 8.0 | 24.1 | 0.00 | 0.13 | 0.13 | 79 | 1012.6 |
| 20260508034008 | 8 | 322 | 11.3 | 24.1 | 0.00 | 0.13 | 0.13 | 79 | 1012.5 |
| 20260508033507 | 8 | 335 | 14.5 | 24.1 | 0.00 | 0.13 | 0.13 | 79 | 1012.5 |
| 20260508033007 | 8 | 5 | 6.4 | 24.1 | 0.00 | 0.13 | 0.13 | 79 | 1012.6 |
| 20260508032510 | 8 | 349 | 9.7 | 24.1 | 0.00 | 0.13 | 0.13 | 80 | 1012.6 |
| 20260508032006 | 8 | 328 | 8.0 | 19.3 | 0.00 | 0.13 | 0.13 | 80 | 1012.4 |
| 20260508031506 | 8 | 328 | 6.4 | 19.3 | 0.00 | 0.13 | 0.13 | 80 | 1012.4 |
| 20260508031006 | 8 | 316 | 6.4 | 19.3 | 0.00 | 0.13 | 0.13 | 80 | 1012.4 |
| 20260508030505 | 8 | 345 | 11.3 | 19.3 | 0.00 | 0.13 | 0.13 | 80 | 1012.2 |
| 20260508030006 | 8 | 316 | 4.8 | 20.9 | 0.00 | 0.13 | 0.13 | 80 | 1012.2 |
| 20260508025502 | 8 | 288 | 6.4 | 19.3 | 0.00 | 0.18 | 0.13 | 81 | 1012.1 |
| 20260508025001 | 8 | 264 | 4.8 | 19.3 | 0.00 | 0.18 | 0.13 | 81 | 1012.0 |
| 20260508024501 | 8 | 302 | 6.4 | 20.9 | 0.00 | 0.18 | 0.13 | 81 | 1012.1 |
| 20260508024001 | 8 | 345 | 4.8 | 20.9 | 0.00 | 0.18 | 0.13 | 81 | 1012.0 |
| 20260508023601 | 8 | 332 | 9.7 | 19.3 | 0.00 | 0.18 | 0.13 | 81 | 1012.1 |
| 20260508023100 | 8 | 8 | 3.2 | 12.9 | 0.00 | 0.18 | 0.13 | 81 | 1012.1 |
| 20260508022559 | 8 | 330 | 4.8 | 14.5 | 0.00 | 0.18 | 0.13 | 81 | 1012.0 |
| 20260508022201 | 8 | 322 | 3.2 | 14.5 | 0.00 | 0.18 | 0.13 | 81 | 1012.2 |
| 20260508021559 | 8 | 13 | 4.8 | 12.9 | 0.00 | 0.18 | 0.13 | 81 | 1012.0 |
| 20260508021058 | 8 | 311 | 3.2 | 12.9 | 0.00 | 0.18 | 0.13 | 80 | 1011.8 |
| 20260508020559 | 8 | 338 | 6.4 | 22.5 | 0.00 | 0.18 | 0.13 | 80 | 1011.7 |
| 20260508020105 | 8 | 229 | 3.2 | 14.5 | 0.00 | 0.18 | 0.13 | 80 | 1011.5 |
| 20260508015557 | 8 | 322 | 3.2 | 16.1 | 0.00 | 0.18 | 0.13 | 80 | 1011.4 |
| 20260508015057 | 8 | 336 | 6.4 | 30.6 | 0.00 | 0.18 | 0.13 | 79 | 1011.3 |
| 20260508014558 | 8 | 310 | 11.3 | 30.6 | 0.00 | 0.18 | 0.13 | 79 | 1011.2 |
| 20260508014056 | 8 | 4 | 9.7 | 24.1 | 0.00 | 0.18 | 0.13 | 79 | 1010.9 |
| 20260508013556 | 8 | 293 | 11.3 | 24.1 | 0.00 | 0.18 | 0.13 | 79 | 1010.9 |
| 20260508013053 | 8 | 337 | 9.7 | 24.1 | 0.00 | 0.18 | 0.13 | 79 | 1010.8 |
| 20260508012555 | 8 | 318 | 9.7 | 19.3 | 0.00 | 0.18 | 0.13 | 79 | 1010.8 |
| 20260508012051 | 8 | 352 | 6.4 | 20.9 | 0.00 | 0.18 | 0.13 | 78 | 1010.7 |
| 20260508011551 | 8 | 311 | 6.4 | 20.9 | 0.00 | 0.18 | 0.13 | 78 | 1010.8 |
| 20260508011053 | 8 | 338 | 8.0 | 17.7 | 0.00 | 0.18 | 0.13 | 78 | 1010.8 |
| 20260508010549 | 8 | 347 | 4.8 | 14.5 | 0.00 | 0.18 | 0.13 | 78 | 1010.6 |
| 20260508010050 | 8 | 304 | 3.2 | 17.7 | 0.00 | 0.18 | 0.13 | 77 | 1010.6 |
| 20260508005547 | 8 | 9 | 8.0 | 17.7 | 0.00 | 0.18 | 0.13 | 77 | 1010.6 |
| 20260508005052 | 8 | 356 | 6.4 | 14.5 | 0.00 | 0.18 | 0.13 | 77 | 1010.4 |
| 20260508004547 | 8 | 323 | 6.4 | 16.1 | 0.00 | 0.18 | 0.13 | 77 | 1010.4 |
| 20260508004046 | 8 | 283 | 6.4 | 17.7 | 0.00 | 0.18 | 0.13 | 77 | 1010.3 |
| 20260508003546 | 8 | 323 | 3.2 | 17.7 | 0.00 | 0.18 | 0.13 | 76 | 1010.2 |
| 20260508003045 | 9 | 127 | 4.8 | 24.1 | 0.00 | 0.18 | 0.13 | 76 | 1010.2 |
| 20260508002544 | 9 | 336 | 9.7 | 24.1 | 0.00 | 0.18 | 0.13 | 75 | 1010.1 |
| 20260508002044 | 9 | 105 | 8.0 | 24.1 | 0.00 | 0.18 | 0.13 | 75 | 1010.1 |
| 20260508001543 | 9 | 332 | 9.7 | 24.1 | 0.00 | 0.18 | 0.13 | 75 | 1010.2 |
| 20260508001043 | 9 | 304 | 6.4 | 20.9 | 0.00 | 0.18 | 0.13 | 76 | 1010.1 |
| 20260508000544 | 9 | 276 | 6.4 | 20.9 | 0.00 | 0.18 | 0.13 | 76 | 1010.1 |
| 20260508000045 | 9 | 315 | 9.7 | 35.4 | 0.00 | 0.18 | 0.13 | 77 | 1010.1 |
| 20260507235542 | 9 | 325 | 14.5 | 35.4 | 0.00 | 0.18 | 0.13 | 76 | 1010.0 |
| 20260507235045 | 10 | 270 | 12.9 | 32.2 | 0.00 | 0.18 | 0.13 | 75 | 1009.9 |
| 20260507234539 | 10 | 345 | 11.3 | 24.1 | 0.00 | 0.18 | 0.13 | 75 | 1009.9 |
| 20260507234038 | 10 | 354 | 9.7 | 19.3 | 0.00 | 0.18 | 0.13 | 74 | 1009.9 |
| 20260507233542 | 10 | 291 | 9.7 | 19.3 | 0.00 | 0.18 | 0.13 | 74 | 1009.9 |
| 20260507233042 | 10 | 290 | 8.0 | 19.3 | 0.00 | 0.18 | 0.13 | 74 | 1010.0 |
| 20260507232536 | 10 | 84 | 6.4 | 22.5 | 0.00 | 0.18 | 0.13 | 74 | 1010.0 |
| 20260507232037 | 10 | 294 | 6.4 | 24.1 | 0.00 | 0.18 | 0.13 | 75 | 1010.0 |
| 20260507231537 | 10 | 272 | 11.3 | 25.7 | 0.00 | 0.18 | 0.13 | 74 | 1010.0 |
| 20260507231034 | 10 | 262 | 9.7 | 25.7 | 0.00 | 0.18 | 0.13 | 75 | 1010.0 |
| 20260507230532 | 10 | 327 | 11.3 | 24.1 | 0.00 | 0.18 | 0.13 | 75 | 1010.0 |
| 20260507230031 | 10 | 284 | 8.0 | 24.1 | 0.00 | 0.18 | 0.13 | 74 | 1010.0 |
| 20260507225532 | 10 | 271 | 8.0 | 30.6 | 0.00 | 0.18 | 0.13 | 75 | 1010.0 |
| 20260507225032 | 10 | 292 | 9.7 | 30.6 | 0.00 | 0.18 | 0.13 | 75 | 1010.1 |
| 20260507224539 | 10 | 4 | 16.1 | 30.6 | 0.00 | 0.18 | 0.13 | 75 | 1009.6 |
| 20260507224030 | 11 | 302 | 11.3 | 29.0 | 0.00 | 0.18 | 0.13 | 75 | 1009.4 |
| 20260507223530 | 11 | 165 | 8.0 | 33.8 | 0.00 | 0.18 | 0.13 | 77 | 1009.5 |
| 20260507223033 | 10 | 326 | 11.3 | 33.8 | 0.00 | 0.18 | 0.13 | 77 | 1009.5 |
| 20260507222531 | 10 | 345 | 12.9 | 33.8 | 0.00 | 0.18 | 0.13 | 77 | 1009.3 |
| 20260507222030 | 11 | 34 | 14.5 | 29.0 | 0.00 | 0.18 | 0.13 | 76 | 1009.2 |
| 20260507221535 | 11 | 259 | 9.7 | 25.7 | 0.00 | 0.18 | 0.13 | 74 | 1009.1 |
| 20260507221028 | 11 | 12 | 4.8 | 19.3 | 0.00 | 0.18 | 0.13 | 75 | 1009.1 |
| 20260507220528 | 11 | 349 | 4.8 | 24.1 | 0.00 | 0.18 | 0.13 | 76 | 1009.0 |
| 20260507220029 | 11 | 318 | 11.3 | 24.1 | 0.00 | 0.18 | 0.13 | 76 | 1008.9 |
| 20260507215528 | 11 | 55 | 4.8 | 16.1 | 0.00 | 0.18 | 0.13 | 79 | 1008.8 |
| 20260507215027 | 11 | 345 | 9.7 | 24.1 | 0.00 | 0.18 | 0.13 | 82 | 1008.8 |
| 20260507214527 | 10 | 141 | 9.7 | 29.0 | 0.00 | 0.18 | 0.13 | 84 | 1008.8 |
| 20260507214026 | 11 | 316 | 14.5 | 29.0 | 0.00 | 0.18 | 0.13 | 83 | 1008.8 |
| 20260507213525 | 11 | 291 | 9.7 | 19.3 | 0.00 | 0.18 | 0.13 | 82 | 1008.7 |
| 20260507213024 | 11 | 34 | 4.8 | 29.0 | 0.00 | 0.18 | 0.13 | 83 | 1008.6 |
| 20260507212522 | 11 | 269 | 14.5 | 35.4 | 0.00 | 0.18 | 0.13 | 81 | 1008.4 |
| 20260507212021 | 12 | 323 | 12.9 | 35.4 | 0.00 | 0.18 | 0.13 | 79 | 1008.4 |
| 20260507211523 | 13 | 321 | 14.5 | 32.2 | 0.00 | 0.18 | 0.13 | 75 | 1008.2 |
| 20260507211018 | 14 | 297 | 6.4 | 17.7 | 0.00 | 0.18 | 0.13 | 72 | 1008.2 |
| 20260507210518 | 13 | 238 | 3.2 | 22.5 | 0.00 | 0.18 | 0.13 | 75 | 1008.0 |
| 20260507210018 | 13 | 231 | 9.7 | 25.7 | 0.00 | 0.18 | 0.13 | 74 | 1007.8 |
| 20260507205517 | 13 | 231 | 6.4 | 25.7 | 0.00 | 0.18 | 0.13 | 73 | 1007.6 |
| 20260507205016 | 14 | 333 | 14.5 | 32.2 | 0.00 | 0.18 | 0.13 | 72 | 1007.6 |
| 20260507204516 | 14 | 334 | 9.7 | 32.2 | 0.00 | 0.18 | 0.13 | 72 | 1007.6 |
| 20260507204015 | 15 | 342 | 9.7 | 24.1 | 0.00 | 0.18 | 0.13 | 70 | 1007.5 |
| 20260507203518 | 15 | 252 | 11.3 | 25.7 | 0.00 | 0.18 | 0.13 | 68 | 1007.6 |
| 20260507203015 | 15 | 257 | 8.0 | 25.7 | 0.00 | 0.18 | 0.13 | 68 | 1007.5 |
| 20260507202514 | 16 | 83 | 6.4 | 20.9 | 0.00 | 0.18 | 0.13 | 68 | 1007.3 |
| 20260507202016 | 15 | 234 | 3.2 | 24.1 | 0.00 | 0.18 | 0.13 | 69 | 1007.1 |
| 20260507201514 | 15 | 269 | 4.8 | 24.1 | 0.00 | 0.18 | 0.13 | 71 | 1007.2 |
| 20260507201014 | 15 | 292 | 8.0 | 19.3 | 0.00 | 0.18 | 0.13 | 70 | 1007.1 |
| 20260507200513 | 15 | 325 | 4.8 | 22.5 | 0.00 | 0.18 | 0.13 | 71 | 1007.1 |
| 20260507200013 | 16 | 23 | 4.8 | 22.5 | 0.00 | 0.18 | 0.13 | 71 | 1007.0 |
| 20260507195516 | 16 | 210 | 9.7 | 20.9 | 0.00 | 0.18 | 0.13 | 69 | 1007.2 |
| 20260507195015 | 16 | 271 | 8.0 | 24.1 | 0.00 | 0.18 | 0.13 | 70 | 1007.2 |
| 20260507194515 | 16 | 321 | 8.0 | 32.2 | 0.00 | 0.18 | 0.13 | 71 | 1007.3 |
| 20260507194012 | 15 | 247 | 6.4 | 32.2 | 0.00 | 0.18 | 0.13 | 73 | 1007.3 |
| 20260507193511 | 16 | 328 | 9.7 | 32.2 | 0.00 | 0.18 | 0.13 | 71 | 1007.2 |
| 20260507193010 | 16 | 337 | 11.3 | 32.2 | 0.00 | 0.18 | 0.13 | 68 | 1007.3 |
| 20260507192510 | 17 | 189 | 8.0 | 24.1 | 0.00 | 0.18 | 0.13 | 67 | 1007.3 |
| 20260507192010 | 17 | 139 | 8.0 | 22.5 | 0.00 | 0.18 | 0.13 | 66 | 1007.3 |
| 20260507191510 | 17 | 293 | 8.0 | 22.5 | 0.00 | 0.18 | 0.13 | 65 | 1007.4 |
| 20260507191009 | 17 | 194 | 6.4 | 19.3 | 0.00 | 0.18 | 0.13 | 64 | 1007.4 |
| 20260507190510 | 18 | 125 | 8.0 | 33.8 | 0.00 | 0.18 | 0.13 | 65 | 1007.5 |
| 20260507190010 | 17 | 118 | 4.8 | 33.8 | 0.00 | 0.18 | 0.13 | 66 | 1007.6 |
| 20260507185509 | 18 | 321 | 6.4 | 17.7 | 0.00 | 0.18 | 0.13 | 62 | 1007.6 |
| 20260507185009 | 19 | 258 | 8.0 | 17.7 | 0.00 | 0.18 | 0.13 | 62 | 1007.6 |
| 20260507184508 | 19 | 288 | 3.2 | 14.5 | 0.00 | 0.18 | 0.13 | 64 | 1007.7 |
| 20260507184008 | 18 | 221 | 4.8 | 14.5 | 0.00 | 0.18 | 0.13 | 64 | 1007.7 |
| 20260507183509 | 18 | 204 | 3.2 | 25.7 | 0.00 | 0.18 | 0.13 | 66 | 1007.6 |
| 20260507183011 | 17 | 141 | 9.7 | 25.7 | 0.00 | 0.18 | 0.13 | 68 | 1007.7 |
| 20260507182507 | 18 | 328 | 4.8 | 25.7 | 0.00 | 0.18 | 0.13 | 66 | 1007.7 |
| 20260507182007 | 18 | 206 | 9.7 | 25.7 | 0.00 | 0.18 | 0.13 | 65 | 1007.7 |
| 20260507181506 | 18 | 39 | 3.2 | 16.1 | 0.00 | 0.18 | 0.13 | 69 | 1007.7 |
| 20260507181009 | 18 | 40 | 8.0 | 20.9 | 0.00 | 0.18 | 0.13 | 67 | 1007.7 |
| 20260507180506 | 18 | 157 | 8.0 | 24.1 | 0.00 | 0.18 | 0.13 | 68 | 1007.5 |
| 20260507180009 | 18 | 290 | 11.3 | 24.1 | 0.00 | 0.18 | 0.13 | 67 | 1007.3 |
| 20260507175505 | 19 | 338 | 9.7 | 20.9 | 0.00 | 0.18 | 0.13 | 65 | 1007.3 |
| 20260507175005 | 19 | 328 | 6.4 | 20.9 | 0.00 | 0.18 | 0.13 | 62 | 1007.2 |
| 20260507174505 | 20 | 46 | 6.4 | 19.3 | 0.00 | 0.18 | 0.13 | 61 | 1007.3 |
| 20260507174004 | 20 | 18 | 6.4 | 19.3 | 0.00 | 0.18 | 0.13 | 61 | 1007.5 |
| 20260507173505 | 20 | 282 | 6.4 | 16.1 | 0.00 | 0.18 | 0.13 | 60 | 1007.5 |
| 20260507173010 | 20 | 101 | 3.2 | 17.7 | 0.00 | 0.18 | 0.13 | 62 | 1007.5 |
| 20260507172503 | 20 | 153 | 4.8 | 19.3 | 0.00 | 0.18 | 0.13 | 62 | 1007.2 |
| 20260507172003 | 20 | 349 | 6.4 | 19.3 | 0.00 | 0.18 | 0.13 | 61 | 1007.2 |
| 20260507171508 | 20 | 293 | 3.2 | 9.7 | 0.00 | 0.18 | 0.13 | 62 | 1007.3 |
| 20260507171003 | 20 | 278 | 3.2 | 22.5 | 0.00 | 0.18 | 0.13 | 63 | 1007.2 |
| 20260507170503 | 20 | 217 | 9.7 | 22.5 | 0.00 | 0.18 | 0.13 | 62 | 1007.3 |
| 20260507170003 | 20 | 327 | 6.4 | 17.7 | 0.00 | 0.18 | 0.13 | 61 | 1007.4 |
| 20260507165501 | 20 | 156 | 3.2 | 12.9 | 0.00 | 0.18 | 0.13 | 62 | 1007.3 |
| 20260507165001 | 19 | 243 | 3.2 | 12.9 | 0.00 | 0.18 | 0.13 | 63 | 1007.3 |
| 20260507164607 | 19 | 321 | 4.8 | 12.9 | 0.00 | 0.18 | 0.13 | 62 | 1007.5 |
| 20260507164100 | 19 | 144 | 4.8 | 12.9 | 0.00 | 0.18 | 0.13 | 64 | 1007.6 |
| 20260507163600 | 18 | 311 | 4.8 | 16.1 | 0.00 | 0.18 | 0.13 | 68 | 1007.6 |
| 20260507163059 | 19 | 326 | 6.4 | 16.1 | 0.00 | 0.18 | 0.13 | 67 | 1007.7 |
| 20260507162659 | 18 | 226 | 3.2 | 12.9 | 0.00 | 0.18 | 0.13 | 69 | 1007.6 |
| 20260507162057 | 18 | 248 | 1.6 | 11.3 | 0.00 | 0.18 | 0.13 | 69 | 1007.7 |
| 20260507161601 | 19 | 217 | 1.6 | 11.3 | 0.00 | 0.18 | 0.13 | 70 | 1007.6 |
| 20260507161058 | 18 | 230 | 3.2 | 8.0 | 0.00 | 0.18 | 0.13 | 70 | 1007.7 |
| 20260507160558 | 18 | 300 | 0.0 | 11.3 | 0.00 | 0.18 | 0.13 | 73 | 1007.8 |
| 20260507160059 | 18 | 267 | 1.6 | 11.3 | 0.00 | 0.18 | 0.13 | 71 | 1007.6 |
| 20260507155557 | 18 | 327 | 4.8 | 12.9 | 0.00 | 0.18 | 0.13 | 69 | 1007.6 |
| 20260507155106 | 20 | 347 | 6.4 | 12.9 | 0.00 | 0.18 | 0.13 | 66 | 1007.5 |
| 20260507154600 | 20 | 27 | 1.6 | 9.7 | 0.00 | 0.18 | 0.13 | 69 | 1007.5 |
| 20260507154057 | 20 | 208 | 1.6 | 11.3 | 0.00 | 0.18 | 0.13 | 69 | 1007.5 |
| 20260507153554 | 18 | 213 | 3.2 | 11.3 | 0.00 | 0.18 | 0.13 | 73 | 1007.6 |
| 20260507153056 | 18 | 157 | 0.0 | 8.0 | 0.00 | 0.18 | 0.13 | 81 | 1007.6 |
| 20260507152558 | 17 | 297 | 3.2 | 8.0 | 0.00 | 0.18 | 0.13 | 80 | 1007.8 |
| 20260507152054 | 17 | 349 | 1.6 | 6.4 | 0.00 | 0.18 | 0.13 | 78 | 1007.7 |
| 20260507151553 | 18 | 15 | 1.6 | 9.7 | 0.00 | 0.18 | 0.13 | 77 | 1007.7 |
| 20260507151053 | 18 | 224 | 3.2 | 16.1 | 0.00 | 0.18 | 0.13 | 76 | 1007.6 |
| 20260507150554 | 18 | 231 | 4.8 | 16.1 | 0.00 | 0.18 | 0.13 | 75 | 1007.6 |
| 20260507150053 | 19 | 179 | 1.6 | 6.4 | 0.00 | 0.18 | 0.13 | 72 | 1007.6 |
| 20260507145551 | 18 | 158 | 3.2 | 6.4 | 0.00 | 0.18 | 0.13 | 75 | 1007.6 |
| 20260507145050 | 18 | 248 | 0.0 | 6.4 | 0.00 | 0.18 | 0.13 | 78 | 1007.8 |
| 20260507144549 | 18 | 224 | 0.0 | 8.0 | 0.00 | 0.18 | 0.13 | 81 | 1007.9 |
| 20260507144048 | 17 | 168 | 1.6 | 9.7 | 0.00 | 0.18 | 0.13 | 81 | 1008.0 |
| 20260507143550 | 17 | 204 | 3.2 | 9.7 | 0.00 | 0.18 | 0.13 | 79 | 1007.9 |
| 20260507143052 | 18 | 240 | 0.0 | 4.8 | 0.00 | 0.18 | 0.13 | 82 | 1007.9 |
| 20260507142546 | 17 | 235 | 0.0 | 1.6 | 0.00 | 0.18 | 0.13 | 87 | 1008.1 |
| 20260507142044 | 17 | 235 | 0.0 | 3.2 | 0.00 | 0.18 | 0.13 | 87 | 1008.2 |
| 20260507141551 | 17 | 205 | 0.0 | 1.6 | 0.00 | 0.18 | 0.13 | 88 | 1008.1 |
| 20260507141044 | 17 | 205 | 0.0 | 1.6 | 0.00 | 0.18 | 0.13 | 88 | 1008.4 |
| 20260507140545 | 17 | 205 | 0.0 | 0.0 | 0.00 | 0.18 | 0.13 | 89 | 1008.2 |
| 20260507140044 | 16 | 205 | 0.0 | 3.2 | 0.00 | 0.18 | 0.13 | 89 | 1008.3 |
| 20260507135544 | 16 | 205 | 0.0 | 3.2 | 0.00 | 0.18 | 0.13 | 89 | 1008.1 |
| 20260507135042 | 16 | 209 | 1.6 | 3.2 | 0.00 | 0.18 | 0.13 | 93 | 1008.0 |
| 20260507134540 | 16 | 343 | 0.0 | 1.6 | 0.00 | 0.18 | 0.13 | 95 | 1008.1 |
| 20260507134038 | 15 | 343 | 0.0 | 1.6 | 0.00 | 0.18 | 0.13 | 94 | 1008.0 |
| 20260507133538 | 15 | 343 | 0.0 | 3.2 | 0.00 | 0.18 | 0.13 | 94 | 1008.3 |